Weather History for KTDF - March, 2011

Change the Weather History Date:

Sunday, March 6, 2011

  Actual Average Record
Temperature  
Mean Temperature 51 °F -  
Max Temperature 60 °F 59 °F 80 °F (1976)
Min Temperature 41 °F 35 °F 13 °F (1960)
Degree Days  
Heating Degree Days 14    
Growing Degree Days 1 (Base 50)    
Moisture  
Dew Point 53 °F    
Average Humidity 91    
Maximum Humidity 100    
Minimum Humidity 82    
Precipitation  
Precipitation 0.41 in - - ()
Sea Level Pressure  
Sea Level Pressure 29.84 in    
Wind  
Wind Speed 8 mph (South)    
Max Wind Speed 15 mph    
Max Gust Speed 25 mph    
Visibility 8 miles    
Events      
Averages and records for this station are not official NWS values.
T = Trace of Precipitation, MM = Missing Value Source: NWS Daily Summary

Daily Weather History Graph

Daily Weather History Graph

Search for Another Location

Airport or City:

Trip Planner

Search our weather history database for the weather conditions in past years. The results will help you decide how hot, cold, wet, or windy it might be!

Date:

Astronomy

Mar. 06, 2011 Rise Set
Actual Time 6:39 AM EST 6:15 PM EST
Civil Twilight 6:14 AM EST 6:40 PM EST
Nautical Twilight 5:44 AM EST 7:10 PM EST
Astronomical Twilight 5:14 AM EST 7:40 PM EST
Moon 7:07 AM EST (3/6) 8:10 PM EST (3/6)
Length of Visible Light 12h 26m
Length of Day
11h 35m
Waxing Crescent, 3% of the Moon is Illuminated
Mar 6
Waxing Crescent
Mar 12
First Quarter
Mar 19
Full
Mar 26
Last Quarter
Apr 3
New

Hourly Weather History & Observations

Time (EST) Temp. Windchill Dew Point Humidity Pressure Visibility Wind Dir Wind Speed Gust Speed Precip Events Conditions
12:01 AM 57.2 °F - 51.8 °F 82% 30.08 in 10.0 mi SSE 6.9 mph - N/A   Overcast
12:21 AM 57.2 °F - 51.8 °F 82% 30.07 in 10.0 mi SE 8.1 mph - N/A   Overcast
12:41 AM 57.2 °F - 51.8 °F 82% 30.06 in 10.0 mi SSE 6.9 mph - N/A   Overcast
1:01 AM 57.2 °F - 51.8 °F 82% 30.06 in 10.0 mi SSE 8.1 mph - N/A   Overcast
1:21 AM 57.2 °F - 51.8 °F 82% 30.05 in 10.0 mi SSE 5.8 mph - N/A   Overcast
1:41 AM 57.2 °F - 53.6 °F 88% 30.03 in 10.0 mi SSE 5.8 mph - N/A   Overcast
2:01 AM 57.2 °F - 51.8 °F 82% 30.03 in 10.0 mi SSE 6.9 mph - N/A   Overcast
2:21 AM 55.4 °F - 51.8 °F 88% 30.02 in 10.0 mi SSE 5.8 mph - N/A   Overcast
2:41 AM 55.4 °F - 51.8 °F 88% 30.01 in 10.0 mi Calm Calm - N/A   Overcast
3:01 AM 55.4 °F - 53.6 °F 94% 30.00 in 10.0 mi SSE 6.9 mph - N/A   Overcast
3:21 AM 57.2 °F - 53.6 °F 88% 29.99 in 10.0 mi South 9.2 mph - N/A   Overcast
3:41 AM 57.2 °F - 53.6 °F 88% 29.98 in 10.0 mi South 8.1 mph - N/A   Overcast
4:02 AM 57.2 °F - 55.4 °F 94% 29.97 in 10.0 mi South 8.1 mph - N/A   Overcast
4:21 AM 57.2 °F - 55.4 °F 94% 29.96 in 10.0 mi South 6.9 mph - N/A   Overcast
4:41 AM 57.2 °F - 55.4 °F 94% 29.96 in 10.0 mi South 6.9 mph - N/A   Overcast
5:01 AM 57.2 °F - 55.4 °F 94% 29.95 in 10.0 mi South 6.9 mph - N/A   Overcast
5:21 AM 57.2 °F - 55.4 °F 94% 29.95 in 10.0 mi South 6.9 mph - N/A   Overcast
5:41 AM 57.2 °F - 55.4 °F 94% 29.94 in 10.0 mi South 8.1 mph - N/A   Overcast
6:01 AM 57.2 °F - 55.4 °F 94% 29.94 in 10.0 mi South 6.9 mph - N/A   Mostly Cloudy
6:21 AM 57.2 °F - 55.4 °F 94% 29.93 in 10.0 mi SSE 5.8 mph - N/A   Mostly Cloudy
6:41 AM 57.2 °F - 55.4 °F 94% 29.92 in 10.0 mi Calm Calm - N/A   Overcast
7:01 AM 57.2 °F - 55.4 °F 94% 29.92 in 10.0 mi SSE 6.9 mph - N/A   Overcast
7:21 AM 59.0 °F - 55.4 °F 88% 29.91 in 10.0 mi SSE 8.1 mph - N/A   Overcast
7:41 AM 59.0 °F - 55.4 °F 88% 29.90 in 7.0 mi SSE 6.9 mph - N/A   Overcast
8:01 AM 57.2 °F - 55.4 °F 94% 29.90 in 10.0 mi South 9.2 mph - N/A   Overcast
8:21 AM 59.0 °F - 55.4 °F 88% 29.89 in 10.0 mi SSE 8.1 mph - N/A   Overcast
8:41 AM 59.0 °F - 55.4 °F 88% 29.88 in 10.0 mi South 6.9 mph - N/A   Overcast
9:01 AM 60.8 °F - 55.4 °F 82% 29.88 in 10.0 mi South 10.4 mph 17.3 mph N/A   Overcast
9:21 AM 59.0 °F - 55.4 °F 88% 29.87 in 2.5 mi South 6.9 mph 17.3 mph 0.04 in   Mostly Cloudy
9:41 AM 57.2 °F - 55.4 °F 94% 29.86 in 10.0 mi South 5.8 mph - N/A   Overcast
10:01 AM 59.0 °F - 55.4 °F 88% 29.84 in 5.0 mi Calm Calm - 0.05 in   Overcast
10:21 AM 59.0 °F - 55.4 °F 88% 29.82 in 5.0 mi SSE 9.2 mph - N/A   Overcast
10:41 AM 59.0 °F - 57.2 °F 94% 29.81 in 3.0 mi SSE 6.9 mph - 0.01 in   Overcast
11:01 AM 59.0 °F - 57.2 °F 94% 29.79 in 7.0 mi SSE 8.1 mph - 0.04 in   Overcast
11:21 AM 60.8 °F - 57.2 °F 88% 29.78 in 5.0 mi South 9.2 mph - N/A   Mostly Cloudy
11:41 AM 60.8 °F - 57.2 °F 88% 29.76 in 3.0 mi SSE 6.9 mph - N/A   Overcast
12:02 PM 60.8 °F - 57.2 °F 88% 29.75 in 7.0 mi SSE 8.1 mph - 0.05 in   Overcast
12:21 PM 60.8 °F - 59.0 °F 94% 29.73 in 2.0 mi South 4.6 mph - 0.02 in   Overcast
12:41 PM 60.8 °F - 59.0 °F 94% 29.71 in 5.0 mi South 12.7 mph 23.0 mph N/A   Overcast
1:01 PM 60.8 °F - 59.0 °F 94% 29.69 in 7.0 mi South 12.7 mph 17.3 mph 0.04 in   Overcast
1:21 PM 60.8 °F - 60.8 °F 100% 29.68 in 10.0 mi South 12.7 mph 23.0 mph 0.01 in   Overcast
1:42 PM 60.8 °F - 60.8 °F 100% 29.66 in 10.0 mi South 12.7 mph 19.6 mph 0.01 in   Mostly Cloudy
2:01 PM 60.8 °F - 59.0 °F 94% 29.65 in 2.0 mi South 8.1 mph - 0.06 in   Overcast
2:21 PM 60.8 °F - 59.0 °F 94% 29.64 in 5.0 mi South 9.2 mph - N/A   Overcast
2:41 PM 60.8 °F - 59.0 °F 94% 29.63 in 4.0 mi South 11.5 mph - N/A   Overcast
3:01 PM 57.2 °F - 55.4 °F 94% 29.64 in 10.0 mi NNW 6.9 mph 21.9 mph N/A   Overcast
3:22 PM 51.8 °F - 48.2 °F 88% 29.65 in 3.0 mi Calm Calm - N/A   Overcast
3:42 PM 50.0 °F - 48.2 °F 94% 29.65 in 4.0 mi NW 9.2 mph - 0.01 in   Overcast
4:01 PM 50.0 °F - 48.2 °F 94% 29.65 in 10.0 mi NW 11.5 mph - 0.05 in   Overcast
4:21 PM 48.2 °F - 48.2 °F 100% 29.67 in 4.0 mi WNW 11.5 mph 18.4 mph 0.02 in   Overcast
4:42 PM 48.2 °F - 46.4 °F 93% 29.67 in 1.8 mi WNW 8.1 mph 18.4 mph 0.05 in   Overcast
5:01 PM 48.2 °F - 46.4 °F 93% 29.67 in 3.0 mi WNW 8.1 mph - 0.05 in   Overcast
5:21 PM 46.4 °F 40.4 °F 46.4 °F 100% 29.67 in 7.0 mi NW 13.8 mph 20.7 mph 0.02 in   Overcast
5:41 PM 46.4 °F 41.5 °F 46.4 °F 100% 29.68 in 10.0 mi WNW 10.4 mph 18.4 mph 0.02 in   Overcast
6:01 PM 46.4 °F 41.1 °F 44.6 °F 93% 29.69 in 10.0 mi WNW 11.5 mph 23.0 mph 0.02 in   Overcast
6:21 PM 44.6 °F 37.8 °F 42.8 °F 93% 29.71 in 7.0 mi WNW 15.0 mph 25.3 mph N/A   Overcast
6:41 PM 42.8 °F 36.6 °F 41.0 °F 93% 29.74 in 4.0 mi West 11.5 mph 23.0 mph N/A   Overcast
7:01 PM 42.8 °F 37.5 °F 39.2 °F 87% 29.76 in 10.0 mi West 9.2 mph 18.4 mph N/A   Overcast
7:21 PM 41.0 °F 34.7 °F 37.4 °F 87% 29.78 in 10.0 mi West 10.4 mph 18.4 mph N/A   Overcast
7:41 PM 41.0 °F 34.3 °F 35.6 °F 81% 29.80 in 10.0 mi West 11.5 mph 25.3 mph N/A   Overcast
8:01 PM 39.2 °F 31.2 °F 32.0 °F 75% 29.80 in 10.0 mi WNW 13.8 mph 24.2 mph N/A   Overcast
8:21 PM 39.2 °F 32.5 °F 30.2 °F 70% 29.81 in 10.0 mi WNW 10.4 mph 25.3 mph N/A   Overcast
8:41 PM 39.2 °F 31.2 °F 30.2 °F 70% 29.84 in 10.0 mi WNW 13.8 mph 19.6 mph N/A   Overcast
9:01 PM 39.2 °F 32.5 °F 30.2 °F 70% 29.85 in 10.0 mi WNW 10.4 mph - N/A   Scattered Clouds
9:21 PM 37.4 °F 30.3 °F 30.2 °F 75% 29.86 in 10.0 mi West 10.4 mph 16.1 mph N/A   Clear
9:41 PM 37.4 °F 31.4 °F 30.2 °F 75% 29.86 in 10.0 mi WNW 8.1 mph - N/A   Clear
10:01 PM 37.4 °F - 30.2 °F 75% 29.87 in 10.0 mi Calm Calm - N/A   Clear
10:21 PM 37.4 °F 30.3 °F 30.2 °F 75% 29.87 in 10.0 mi WNW 10.4 mph - N/A   Clear
10:41 PM 37.4 °F 32.1 °F 28.4 °F 70% 29.87 in 10.0 mi NW 6.9 mph - N/A   Clear
11:01 PM 35.6 °F 29.9 °F 28.4 °F 75% 29.88 in 10.0 mi WNW 6.9 mph - N/A   Clear
11:21 PM 35.6 °F 30.7 °F 28.4 °F 75% 29.88 in 10.0 mi WNW 5.8 mph - N/A   Clear
11:41 PM 35.6 °F 31.7 °F 28.4 °F 75% 29.89 in 10.0 mi WNW 4.6 mph - N/A   Clear